This demonstration page uses our WeatherBlox Daily Observations layout. Learn more.

Left ArrowRight Arrow

Hourly Observations for May 19, 2015

Temp ( °F °C ) Dew Point ( °F °C ) Humidity (%) Winds ( mph kmh ) Pressure ( in mb ) Visibility ( mi km ) Precip ( " mm )
12:52 am 00:52 Clear 45 7.2 37 2.8 74 74 N 12 19 30.38 1029 10 16 0.00 0.00
1:52 am 01:52 Clear 44 6.7 36 2.2 73 73 N 12 19 30.37 1028 10 16 0.00 0.00
2:52 am 02:52 Clear 42 5.6 35 1.7 76 76 N 10 17 30.36 1028 10 16 0.00 0.00
3:52 am 03:52 Clear 40 4.4 34 1.1 79 79 N 12 19 30.35 1028 10 16 0.00 0.00
4:32 am 04:32 Mostly Cloudy 39 4 34 1 81 81 N 13 20 30.39 1029 10 16 0.00 0.00
4:52 am 04:52 Cloudy 40 4.4 34 1.1 79 79 N 14 22 30.34 1027 10 16 0.00 0.00
5:52 am 05:52 Cloudy 41 5 33 0.6 73 73 NNE 15 24 30.37 1028 10 16 0.00 0.00
6:52 am 06:52 Cloudy 41 5 33 0.6 73 73 NNE 9 15 30.42 1030 10 16 0.00 0.00
7:52 am 07:52 Cloudy 41 5 33 0.6 73 73 NNE 13 20 30.40 1029 10 16 0.00 0.00
8:52 am 08:52 Cloudy 41 5 33 0.6 73 73 NNE 16 26 30.39 1029 10 16 0.00 0.00
9:52 am 09:52 Cloudy 42 5.6 33 0.6 71 71 NNE 15 24 30.40 1029 10 16 0.00 0.00
10:52 am 10:52 Cloudy 44 6.7 35 1.7 71 71 ENE 9 15 30.40 1029 10 16 0.00 0.00
11:52 am 11:52 Cloudy 45 7.2 35 1.7 68 68 NE 8 13 30.40 1030 10 16 0.00 0.00
12:52 pm 12:52 Cloudy 49 9.4 35 1.7 59 59 N 8 13 30.37 1028 10 16 0.00 0.00
1:04 pm 13:04 Cloudy 48 9 36 2 62 62 NNE 10 17 30.39 1029 10 16 0.00 0.00
1:52 pm 13:52 Cloudy 51 10.6 36 2.2 56 56 N 9 15 30.32 1027 10 16 0.00 0.00
2:52 pm 14:52 Cloudy 53 11.7 35 1.7 51 51 N 12 19 30.27 1025 10 16 0.00 0.00
3:52 pm 15:52 Cloudy 54 12.2 36 2.2 51 51 NE 7 11 30.32 1027 10 16 0.00 0.00
4:52 pm 16:52 Cloudy 54 12.2 36 2.2 51 51 N 6 9 30.29 1026 10 16 0.00 0.00
5:52 pm 17:52 Cloudy 55 12.8 37 2.8 51 51 NNE 8 13 30.27 1025 10 16 0.00 0.00
6:52 pm 18:52 Cloudy 55 12.8 38 3.3 53 53 NNE 10 17 30.22 1024 10 16 0.00 0.00
7:52 pm 19:52 Cloudy 54 12.2 38 3.3 55 55 NNE 10 17 30.21 1023 10 16 0.00 0.00
8:52 pm 20:52 Cloudy 53 11.7 39 3.9 59 59 NE 8 13 30.21 1023 10 16 0.00 0.00
9:52 pm 21:52 Cloudy 53 11.7 39 3.9 59 59 ENE 9 15 30.22 1023 10 16 0.00 0.00
10:52 pm 22:52 Cloudy 52 11.1 40 4.4 64 64 NE 12 19 30.21 1023 10 16 0.00 0.00
11:52 pm 23:52 Cloudy with Light Rain 51 10.6 40 4.4 66 66 NNE 12 19 30.19 1022 10 16 0.00 0.03

Powered by AerisWeather